This demonstration page uses our WeatherBlox Daily Observations layout. Learn more.

Left ArrowRight Arrow

44.89941, -97.11507

Hourly Observations for May 11, 2019

Temp ( °F °C ) Dew Point ( °F °C ) Humidity (%) Winds ( mph kmh ) Pressure ( in mb ) Visibility ( mi km ) Precip ( " mm )
12:53 am 00:53 Clear 44 6.7 33 0.6 65 65 SE 7 11 29.98 1015 10 16 0.00 0.00
1:53 am 01:53 Clear 42 5.6 34 1.1 73 73 SSE 9 15 29.96 1015 10 16 0.00 0.00
2:53 am 02:53 Clear 42 5.6 33 0.6 71 71 SSE 9 15 29.94 1014 10 16 0.00 0.00
3:53 am 03:53 Clear 43 6.1 34 1.1 71 71 SSE 9 15 29.92 1013 10 16 0.00 0.00
4:53 am 04:53 Clear 43 6.1 35 1.7 74 74 SSE 13 20 29.90 1013 10 16 0.00 0.00
5:53 am 05:53 Clear 43 6.1 35 1.7 74 74 SE 9 15 29.88 1012 10 16 0.00 0.00
6:53 am 06:53 Sunny 42 5.6 36 2.2 79 79 SSE 9 15 29.86 1011 10 16 0.00 0.00
7:53 am 07:53 Sunny 45 7.2 38 3.3 77 77 SSE 12 19 29.84 1011 10 16 0.00 0.00
8:53 am 08:53 Sunny 51 10.6 40 4.4 66 66 SSE 14 22 29.83 1010 10 16 0.00 0.00
9:53 am 09:53 Sunny 55 12.8 41 5 59 59 S 15 24 29.82 1010 10 16 0.00 0.00
10:53 am 10:53 Sunny 58 14.4 42 5.6 56 56 S 17 28 29.80 1009 10 16 0.00 0.00
11:53 am 11:53 Sunny 61 16.1 42 5.6 50 50 S 25 41 29.78 1009 10 16 0.00 0.00
12:53 pm 12:53 Partly Cloudy 60 15.6 41 5 50 50 S 23 37 29.77 1008 10 16 0.00 0.00
1:49 pm 13:49 Cloudy with Light Rain 54 12 43 6 67 67 SSE 15 24 29.75 1007 2 3 0.06 1.52
1:53 pm 13:53 Cloudy with Light Rain 53 11.7 42 5.6 66 66 SSE 12 19 29.77 1008 6 10 0.06 1.52
2:03 pm 14:03 Cloudy with Light Rain 50 10 45 7.2 83 83 SW 24 39 29.78 1008 8 13 0.00 0.03
2:10 pm 14:10 Cloudy with Light Rain 50 10 45 7.2 83 83 SSW 22 35 29.78 1008 3 5 0.03 0.76
2:53 pm 14:53 Cloudy with Light Rain 50 10 45 7.2 83 83 SSW 22 35 29.80 1009 5 8 0.07 1.78
3:53 pm 15:53 Cloudy with Light Rain 50 10 46 7.8 86 86 S 16 26 29.78 1008 10 16 0.06 1.52
4:53 pm 16:53 Cloudy with Light Rain 50 10 46 7.8 86 86 SSE 16 26 29.76 1008 7 11 0.05 1.27
5:22 pm 17:22 Cloudy with Light Rain 49 9.4 45 7.2 86 86 S 13 20 29.74 1007 6 10 0.03 0.76
5:53 pm 17:53 Cloudy 50 10 45 7.2 83 83 S 15 24 29.76 1008 10 16 0.03 0.76
6:53 pm 18:53 Cloudy 49 9.4 44 6.7 83 83 SSW 8 13 29.75 1008 10 16 0.00 0.00
7:53 pm 19:53 Cloudy 49 9.4 45 7.2 86 86 S 8 13 29.75 1007 10 16 0.00 0.00
8:53 pm 20:53 Cloudy 48 8.9 44 6.7 86 86 SSE 6 9 29.75 1008 10 16 0.00 0.00
9:53 pm 21:53 Partly Cloudy 46 7.8 43 6.1 89 89 SSE 5 7 29.76 1008 10 16 0.00 0.00
10:33 pm 22:33 Mostly Cloudy 47 8.3 43 6.1 86 86 SSE 8 13 29.78 1008 10 16 0.00 0.00
10:53 pm 22:53 Cloudy 47 8.3 44 6.7 90 90 SE 7 11 29.76 1008 10 16 0.00 0.00
11:53 pm 23:53 Mostly Clear 46 7.8 44 6.7 93 93 SSE 8 13 29.76 1008 10 16 0.00 0.00

Powered by AerisWeather